Probability
0 0 0 0 0 0 0 0 0 0 0 0 0 0 0 0 0 0 0 3 0 3 3 6 6 10 10 10 6 6 3 0 0 3 3 6 10 0 0 3 3 3 3 0
0 0 0 0 0 0 0 0 0 0 0 0 0 0 0 0 0 0 0 0 0 0 3 6 6 6 10 10 3 6 3 3 0 0 3 3 10 6 6 3 3 3 3 3
0 0 0 0 0 0 0 0 0 0 0 0 0 0 0 0 0 0 0 0 0 0 0 6 3 3 10 6 6 6 6 0 6 6 6 6 10 6 3 3 6 0 3 0
0 0 0 0 0 0 0 0 0 0 0 0 0 0 0 0 0 0 0 0 0 0 0 0 3 6 6 10 10 10 6 6 3 3 6 6 3 3 0 0 3 0 0 0
0 0 0 0 0 0 0 0 0 0 0 0 0 0 0 0 0 0 0 0 0 3 3 3 0 10 6 10 10 6 13 6 6 3 10 3 3 3 3 3 0 0 0 0
0 0 0 0 0 0 0 0 0 0 0 0 0 0 0 0 0 0 0 0 0 0 0 3 3 10 13 16 13 6 6 6 6 3 6 6 3 6 3 0 0 0 0 0
0 0 0 0 0 0 0 0 0 0 0 0 0 0 0 0 0 0 0 0 0 0 0 3 3 13 16 19 16 10 6 13 10 6 3 3 3 6 6 6 6 0 3 0
0 0 0 0 0 0 0 0 0 0 0 0 0 0 0 0 0 0 0 0 0 0 0 3 3 16 10 13 13 16 10 13 10 6 3 3 6 6 3 3 6 3 0 0
0 0 0 0 0 0 0 0 0 0 0 0 0 0 0 0 0 0 0 0 0 0 0 3 6 13 16 13 10 16 10 10 3 3 3 3 6 6 6 3 3 0 0 0
0 0 0 0 0 0 0 0 0 0 0 0 0 0 0 0 0 0 0 0 0 0 3 3 6 10 10 13 13 13 13 6 6 0 0 3 3 6 3 3 3 3 3 3
0 0 0 0 0 0 0 0 0 0 0 0 0 0 0 0 0 0 0 0 0 0 3 3 3 6 6 10 16 10 10 10 6 0 0 0 0 0 3 3 3 3 3 3
0 0 0 0 0 0 0 0 0 0 0 0 0 0 0 0 0 0 0 0 0 0 3 3 3 6 6 6 6 10 10 6 3 3 3 0 0 0 0 0 0 0 0 3
0 0 0 0 0 0 0 0 0 0 0 0 0 0 0 0 0 0 0 0 0 0 0 3 3 3 6 3 3 6 10 6 6 3 3 3 3 3 0 0 3 0 0 0
0 0 0 0 0 0 0 0 0 0 0 0 0 0 0 0 0 0 0 0 0 0 3 3 3 3 3 3 3 3 10 10 6 6 3 6 3 3 3 3 3 0 0 0
0 0 0 0 0 0 0 0 0 0 0 0 0 0 0 0 0 0 0 0 0 0 3 3 3 3 3 3 3 3 3 10 10 3 3 6 3 3 3 6 6 6 3 0
0 0 0 0 0 0 0 0 0 0 0 0 0 0 0 0 0 0 0 0 0 0 3 3 3 3 3 3 6 3 3 6 6 6 6 6 10 6 6 6 6 6 6 0
0 0 0 0 0 0 0 0 0 0 0 0 0 0 0 0 0 0 0 0 0 0 0 3 3 3 3 3 3 3 6 6 6 3 3 3 3 6 6 3 3 3 3 3
0 0 0 0 0 0 0 0 0 0 0 0 0 0 0 0 0 0 0 0 0 0 0 3 3 3 3 3 3 3 3 3 6 6 3 3 3 3 3 3 3 3 0 0
0 0 0 0 0 0 0 0 0 0 0 0 0 0 0 0 0 0 0 0 0 0 0 3 3 3 3 3 0 0 0 3 3 6 6 3 6 3 3 3 3 0 0 0
0 0 0 0 0 0 0 0 0 0 0 0 0 0 0 0 0 0 0 3 3 0 0 3 3 3 0 0 0 0 0 0 3 3 3 6 6 6 6 6 3 0 0 0
0 0 0 0 0 0 0 0 0 0 0 0 0 0 0 0 0 0 0 3 3 3 3 3 3 3 3 0 0 0 0 0 3 3 3 3 3 3 3 3 3 3 0 0
0 0 0 0 0 0 0 0 0 0 0 0 0 0 0 0 0 0 0 0 3 0 3 3 3 3 3 0 0 0 0 3 3 3 3 3 3 3 3 3 3 3 3 0
0 0 0 0 0 0 0 0 0 0 0 0 0 0 0 0 0 0 0 0 0 0 0 0 3 3 3 0 0 0 0 0 0 0 0 0 0 0 3 0 0 3 0 0
0 0 0 0 0 0 0 0 0 0 0 0 0 0 0 0 0 0 0 0 0 0 0 0 0 3 3 3 0 0 0 0 0 0 0 0 0 0 0 0 0 3 3 0
0 0 0 0 0 0 0 0 0 0 0 0 0 0 0 0 0 0 0 0 0 0 3 3 3 3 3 3 0 3 0 0 0 0 0 0 0 0 0 0 0 0 3 0
0 0 0 0 0 0 0 0 0 0 0 0 0 0 0 0 0 0 0 0 0 0 0 3 3 0 3 0 0 0 0 0 0 0 0 0 0 0 0 0 0 0 0 0
Height
5820 5821 5821 5822 5824 5825 5825 5825 5826 5827 5827 5827 5828 5829 5829 5830 5831 5833 5833 5834 5834 5835 5835 5836 5836 5836 5837 5837 5837 5837 5837 5837 5836 5836 5836 5836 5836 5836 5836 5835 5835 5835 5835 5835
5818 5818 5820 5820 5821 5822 5822 5823 5823 5824 5824 5824 5825 5826 5827 5828 5829 5830 5830 5831 5831 5831 5832 5833 5833 5834 5834 5834 5834 5834 5834 5834 5833 5833 5833 5832 5832 5832 5832 5832 5832 5832 5832 5832
5815 5817 5817 5817 5818 5819 5819 5820 5821 5821 5821 5822 5822 5823 5824 5825 5826 5827 5827 5828 5829 5829 5830 5830 5830 5831 5831 5831 5831 5831 5830 5830 5830 5829 5829 5829 5829 5829 5829 5829 5829 5828 5828 5828
5813 5813 5814 5815 5815 5816 5817 5818 5818 5818 5819 5819 5820 5820 5822 5822 5823 5824 5824 5825 5826 5826 5827 5827 5827 5827 5827 5827 5827 5828 5827 5827 5826 5826 5826 5825 5825 5825 5825 5825 5825 5824 5824 5823
5810 5811 5811 5812 5813 5813 5814 5815 5816 5816 5816 5817 5817 5818 5819 5819 5820 5821 5821 5822 5823 5823 5824 5824 5824 5824 5824 5824 5824 5824 5824 5823 5823 5822 5822 5821 5821 5820 5820 5820 5820 5819 5819 5818
5807 5808 5809 5810 5810 5811 5812 5813 5813 5813 5813 5814 5815 5815 5816 5815 5817 5818 5818 5819 5819 5820 5820 5820 5820 5820 5820 5820 5820 5820 5820 5819 5818 5818 5817 5817 5816 5816 5815 5815 5814 5814 5814 5813
5805 5805 5806 5807 5807 5808 5809 5810 5810 5810 5810 5811 5813 5812 5813 5813 5814 5814 5815 5816 5816 5816 5817 5817 5817 5817 5816 5816 5816 5816 5815 5815 5814 5814 5813 5812 5812 5811 5810 5810 5809 5809 5808 5808
5802 5803 5803 5804 5804 5805 5806 5807 5808 5808 5809 5810 5810 5809 5811 5811 5811 5811 5812 5812 5812 5813 5813 5813 5812 5812 5812 5812 5811 5811 5811 5810 5810 5809 5809 5808 5807 5806 5805 5805 5804 5804 5803 5803
5800 5801 5801 5801 5801 5802 5803 5803 5805 5806 5806 5806 5807 5807 5807 5808 5808 5808 5808 5808 5809 5808 5809 5808 5808 5808 5808 5807 5807 5807 5806 5806 5805 5804 5804 5803 5802 5801 5801 5800 5799 5798 5798 5798
5797 5797 5798 5798 5799 5800 5801 5801 5802 5803 5803 5803 5804 5804 5804 5804 5804 5804 5804 5804 5804 5804 5804 5804 5803 5803 5803 5803 5802 5802 5801 5801 5800 5799 5798 5798 5797 5796 5795 5795 5794 5793 5793 5792
5794 5795 5795 5796 5796 5797 5798 5799 5799 5799 5800 5800 5801 5803 5801 5801 5800 5800 5800 5800 5800 5800 5800 5799 5799 5799 5798 5798 5798 5797 5797 5796 5795 5794 5793 5792 5791 5791 5790 5789 5788 5788 5787 5787
5791 5791 5792 5792 5793 5793 5794 5795 5795 5796 5796 5796 5797 5800 5797 5797 5796 5796 5796 5796 5795 5795 5795 5794 5794 5794 5794 5793 5793 5792 5792 5791 5790 5789 5788 5787 5786 5785 5784 5783 5783 5782 5781 5781
5787 5788 5788 5789 5791 5790 5790 5791 5791 5792 5792 5792 5793 5796 5792 5792 5791 5791 5791 5791 5791 5790 5790 5789 5789 5789 5789 5788 5788 5787 5786 5785 5784 5783 5782 5781 5780 5779 5778 5777 5776 5776 5775 5775
5783 5784 5785 5786 5785 5785 5785 5786 5786 5787 5787 5787 5788 5789 5788 5786 5786 5786 5786 5785 5785 5785 5784 5784 5784 5784 5783 5783 5782 5782 5781 5780 5778 5777 5775 5775 5774 5772 5772 5771 5770 5769 5769 5769
5779 5780 5779 5780 5780 5780 5781 5782 5782 5782 5782 5783 5783 5783 5783 5782 5781 5781 5780 5780 5780 5779 5778 5778 5778 5778 5778 5777 5777 5776 5775 5774 5772 5771 5770 5769 5768 5766 5765 5765 5764 5763 5762 5762
5774 5775 5775 5775 5775 5776 5776 5777 5777 5777 5777 5777 5777 5778 5777 5776 5776 5775 5774 5774 5773 5773 5773 5772 5772 5772 5771 5771 5770 5770 5769 5768 5766 5765 5764 5762 5761 5760 5759 5758 5758 5757 5756 5755
5769 5769 5770 5770 5770 5770 5771 5772 5772 5772 5772 5772 5772 5773 5771 5770 5770 5769 5768 5768 5767 5767 5767 5766 5766 5766 5765 5764 5764 5763 5762 5761 5760 5759 5757 5756 5755 5754 5753 5752 5751 5750 5749 5748
5764 5764 5764 5765 5766 5764 5768 5767 5767 5766 5766 5766 5765 5765 5765 5764 5764 5763 5762 5762 5761 5761 5760 5760 5760 5759 5758 5758 5757 5756 5755 5754 5753 5752 5750 5749 5748 5747 5746 5744 5743 5743 5742 5741
5759 5759 5759 5759 5759 5759 5761 5761 5761 5760 5760 5760 5760 5759 5759 5758 5758 5757 5756 5756 5755 5755 5754 5753 5753 5752 5751 5751 5750 5749 5748 5746 5745 5744 5743 5742 5740 5739 5738 5737 5736 5735 5734 5733
5753 5753 5754 5753 5752 5753 5756 5756 5754 5755 5754 5754 5753 5753 5753 5752 5751 5752 5751 5750 5749 5748 5747 5747 5746 5745 5744 5744 5742 5741 5740 5739 5738 5736 5735 5734 5732 5731 5730 5729 5728 5727 5726 5725
5746 5747 5747 5747 5745 5746 5749 5749 5748 5749 5749 5748 5747 5747 5746 5746 5745 5745 5744 5743 5742 5742 5741 5740 5739 5738 5737 5736 5735 5734 5732 5731 5730 5728 5727 5725 5724 5723 5722 5721 5719 5718 5717 5716
5739 5739 5740 5739 5739 5742 5742 5741 5742 5742 5741 5741 5740 5740 5739 5739 5738 5738 5737 5736 5735 5735 5734 5733 5732 5731 5730 5729 5727 5726 5724 5723 5722 5720 5719 5717 5716 5715 5713 5712 5711 5709 5708 5707
5732 5733 5733 5733 5735 5734 5733 5734 5734 5734 5734 5733 5733 5733 5732 5732 5731 5731 5730 5729 5728 5727 5726 5725 5724 5723 5722 5721 5719 5718 5717 5715 5713 5712 5710 5709 5707 5706 5705 5703 5702 5700 5699 5698
5724 5725 5725 5725 5726 5726 5725 5725 5726 5726 5726 5726 5725 5725 5725 5724 5724 5723 5722 5721 5720 5719 5718 5717 5716 5715 5714 5713 5711 5710 5708 5707 5705 5704 5702 5700 5699 5697 5695 5694 5693 5691 5690 5688
5716 5717 5716 5717 5718 5717 5718 5717 5718 5718 5718 5718 5717 5717 5717 5716 5716 5715 5714 5713 5712 5711 5710 5709 5707 5706 5705 5704 5703 5701 5699 5698 5696 5695 5693 5691 5689 5687 5686 5685 5683 5681 5680 5678
5707 5708 5708 5708 5709 5709 5709 5709 5709 5709 5709 5709 5709 5709 5709 5708 5707 5706 5705 5705 5704 5702 5701 5700 5698 5697 5696 5695 5693 5692 5690 5688 5687 5685 5684 5682 5680 5678 5677 5675 5673 5671 5670 5668
Wind_Speed
10 11 11 11 11 11 11 11 12 13 13 13 13 13 14 14 14 14 13 13 11 11 11 12 12 12 13 13 13 13 13 14 14 14 15 15 15 15 15 14 14 14 14 14
10 11 11 12 12 11 12 11 11 12 13 12 13 13 14 14 14 14 14 14 13 12 13 13 13 13 13 14 14 14 14 14 14 15 15 15 15 15 15 15 15 14 14 14
10 11 11 12 12 12 12 12 11 12 12 12 12 12 13 14 14 14 14 14 14 13 13 13 13 14 14 15 15 15 16 15 15 16 16 16 16 16 16 16 16 16 16 16
10 10 11 11 11 11 11 11 11 11 12 11 12 13 12 13 14 15 15 15 15 13 14 14 14 15 15 16 17 16 16 16 17 17 18 17 17 17 17 18 18 18 18 19
10 11 10 10 11 11 11 11 11 11 11 11 11 13 13 14 15 15 16 16 16 15 15 15 16 16 16 16 17 17 17 17 18 18 18 18 18 18 18 19 19 19 20 20
10 11 11 11 11 11 11 11 11 10 10 11 12 13 15 15 15 15 16 16 16 16 16 16 17 17 17 17 17 17 18 18 19 19 19 19 19 19 19 19 20 20 21 21
9 9 10 10 10 11 11 11 10 10 11 13 13 15 16 15 16 16 16 16 17 17 18 18 18 18 18 18 18 18 18 19 19 19 19 20 20 20 20 20 20 20 20 21
10 9 9 10 10 10 11 11 10 11 12 14 15 17 16 16 16 16 17 17 17 17 18 18 19 19 18 18 19 19 19 19 19 19 20 20 20 20 20 20 20 20 21 20
10 11 11 11 10 10 10 11 11 11 12 13 14 17 17 16 16 17 17 17 18 18 18 19 19 19 19 19 19 20 20 19 19 20 21 21 21 21 21 21 21 21 21 21
12 13 12 11 10 11 12 12 11 12 12 12 13 16 17 16 17 17 18 17 18 19 19 19 19 20 20 20 20 20 20 20 20 21 22 22 21 21 21 22 21 21 22 22
13 14 13 13 12 11 12 13 13 13 13 12 13 15 16 16 18 18 18 18 18 18 19 19 19 19 20 20 20 20 20 21 21 21 21 21 21 21 21 21 22 22 22 22
14 14 13 14 14 14 14 14 14 14 14 14 15 16 16 17 19 19 18 18 18 19 19 19 20 20 20 20 20 20 20 21 21 21 21 21 21 22 21 22 22 22 23 23
14 15 14 14 15 15 15 15 16 16 16 15 15 17 16 18 19 19 19 19 20 20 20 20 20 20 20 21 21 21 21 20 21 21 21 21 21 21 22 22 23 23 23 23
16 16 16 15 16 17 16 16 17 18 17 17 16 17 18 18 20 20 19 19 21 21 22 22 21 21 20 20 21 21 21 21 21 21 21 21 21 21 22 23 23 23 23 23
18 18 18 18 18 18 18 17 18 18 18 18 18 19 19 19 20 21 20 21 21 22 23 23 22 21 21 21 22 22 22 22 22 22 22 22 22 22 22 23 23 24 24 24
19 19 19 19 18 19 19 19 19 19 19 20 20 20 21 21 20 21 20 20 20 22 23 23 24 23 22 22 22 23 23 23 24 24 23 24 24 23 23 24 24 25 25 25
20 20 21 21 20 20 19 19 19 19 20 21 21 20 21 21 21 21 21 20 20 21 22 22 22 23 23 23 23 24 24 24 25 25 25 25 25 25 24 24 24 24 25 25
21 21 21 21 21 22 19 19 20 21 22 22 21 21 22 22 22 22 22 22 21 22 22 22 22 23 24 24 24 25 25 25 26 26 25 25 25 25 25 25 25 25 25 26
21 22 22 22 23 23 22 20 21 22 23 22 22 22 22 22 22 22 23 23 23 24 24 24 24 25 25 24 25 25 25 26 26 26 26 26 26 25 25 26 26 26 27 27
23 23 24 24 25 25 24 23 23 23 24 23 23 22 22 23 23 23 23 23 24 24 24 24 25 25 25 25 25 25 25 25 26 26 26 26 26 26 27 27 27 28 27 27
25 25 25 25 26 27 25 24 24 25 25 24 25 24 24 24 24 24 24 24 25 25 25 25 25 25 25 26 26 27 27 27 27 27 27 27 28 28 28 28 29 29 29 29
26 26 26 27 28 27 26 25 25 25 25 25 25 26 26 25 25 26 26 26 26 26 26 26 26 25 26 26 27 27 28 28 28 28 28 28 29 29 29 29 30 30 30 29
27 27 27 28 27 27 28 27 27 27 27 27 27 28 27 27 26 26 26 27 27 26 26 26 27 27 27 28 28 28 28 29 29 29 29 29 29 29 30 30 31 31 31 30
29 28 28 29 28 28 30 30 30 29 28 27 29 29 28 28 28 28 28 28 27 27 28 28 28 28 28 29 29 29 30 30 30 30 30 30 30 30 30 31 31 31 32 32
29 29 29 30 30 30 31 31 31 31 30 29 29 30 30 29 29 29 29 28 28 28 28 29 29 29 29 30 30 31 31 31 31 31 31 31 31 31 31 31 32 32 32 32
30 31 31 31 31 33 32 33 32 32 31 30 30 30 30 30 30 30 30 29 29 29 29 29 30 30 30 31 31 32 33 33 32 32 32 31 31 32 32 32 32 32 32 31
Wind_Direction
253 249 249 253 254 255 256 257 260 262 263 262 260 258 256 252 257 258 262 264 266 269 267 269 272 274 276 278 279 281 282 284 283 280 280 281 281 280 279 282 283 283 285 286
249 251 250 250 250 252 255 256 259 263 261 261 261 258 256 257 261 260 262 264 265 266 270 271 272 274 275 277 280 282 283 284 282 281 283 283 281 281 279 280 285 283 281 283
250 253 249 249 249 249 251 256 256 260 262 261 261 261 259 258 260 262 263 264 266 267 270 272 272 275 277 278 280 282 283 284 284 284 285 282 279 280 280 282 283 282 282 283
250 252 247 247 251 253 253 256 261 263 262 265 265 266 263 264 263 262 262 263 267 264 271 275 277 278 277 277 279 281 283 285 286 286 286 283 283 281 280 281 281 282 281 280
251 253 251 250 251 252 255 258 262 263 264 266 265 267 264 266 265 264 263 264 268 268 273 275 278 279 278 278 280 281 283 285 287 286 286 284 284 282 281 281 281 281 281 281
253 252 250 250 254 255 256 258 258 261 267 271 269 268 265 268 270 270 269 268 269 270 274 277 279 279 279 280 281 281 283 285 286 287 286 284 283 283 282 282 281 281 282 282
254 252 253 253 253 256 256 257 258 263 267 270 270 269 268 270 272 272 271 270 271 273 276 278 279 280 282 282 281 281 282 284 285 286 285 285 285 284 283 281 280 281 282 281
260 258 253 255 254 256 254 252 252 252 256 265 269 271 272 273 274 275 274 273 273 275 276 278 280 280 281 281 280 282 284 284 284 285 285 285 286 286 285 284 282 281 282 280
256 262 256 256 256 255 254 249 250 255 257 262 266 270 273 274 278 278 275 274 274 275 278 280 280 280 280 282 282 283 284 284 284 284 284 285 286 285 283 283 282 283 281 280
257 259 258 258 258 258 255 252 251 257 262 265 266 270 273 277 281 281 279 278 278 277 280 281 281 280 280 281 282 283 285 285 285 284 284 285 285 284 283 283 282 282 280 279
257 261 260 257 257 260 257 252 255 259 264 264 265 266 275 281 282 281 281 280 280 280 280 281 281 282 281 282 282 283 284 285 285 284 284 284 285 284 284 286 284 282 279 277
255 260 262 262 258 261 262 258 257 260 263 265 268 271 275 280 280 280 281 280 279 279 280 281 282 281 281 282 283 283 286 286 285 284 284 284 284 285 286 285 284 281 280 278
257 258 261 263 262 260 256 256 257 260 266 266 266 271 276 277 278 278 278 278 277 278 281 281 282 281 280 281 281 283 286 287 287 285 285 286 287 284 285 284 283 281 280 278
259 258 259 259 264 267 264 261 260 262 264 265 268 270 274 279 279 279 278 277 277 277 279 280 280 281 282 282 282 282 285 287 287 288 287 286 287 285 284 283 283 281 282 280
260 259 260 260 261 265 266 264 264 266 267 267 267 269 272 276 277 279 278 277 274 275 277 279 280 280 281 281 282 282 284 286 288 289 289 288 287 286 285 283 283 283 283 282
261 261 263 265 263 263 265 262 263 267 268 270 270 271 273 275 278 280 279 278 276 274 275 278 280 282 282 281 281 282 283 284 286 289 290 290 288 286 286 285 284 284 283 282
263 264 264 265 264 266 264 262 267 269 268 270 272 274 275 278 277 278 278 278 278 278 277 278 279 281 282 282 282 281 282 283 284 286 288 288 287 286 286 285 284 284 284 282
263 264 267 269 266 265 270 269 270 271 271 271 272 274 275 276 278 278 278 279 279 280 280 279 279 279 280 282 283 282 282 283 283 284 286 287 287 286 285 284 283 283 284 284
264 265 268 271 270 270 270 273 272 272 272 272 270 274 277 278 277 276 278 280 282 283 282 281 280 280 280 280 281 281 283 283 283 284 284 284 285 285 284 284 283 282 283 283
261 264 266 269 270 272 273 275 274 274 274 272 271 274 276 279 278 278 279 281 282 284 283 284 283 281 281 281 280 281 282 283 283 284 285 284 283 283 284 284 284 283 282 282
262 263 266 268 269 271 274 273 275 275 276 275 273 275 275 277 280 282 282 282 282 283 285 285 284 282 282 282 281 281 281 283 284 285 287 285 283 283 284 285 284 283 282 282
265 265 266 267 269 272 273 273 274 276 276 276 276 276 277 278 280 281 283 284 283 283 285 283 283 283 283 283 283 283 284 284 285 286 287 286 284 283 283 284 284 283 282 283
264 266 267 267 269 271 272 273 273 274 276 275 275 277 278 280 281 281 282 283 283 282 283 282 282 282 282 283 284 284 285 285 286 287 287 286 285 283 283 283 283 283 283 283
264 265 267 267 267 269 271 272 273 273 275 276 277 278 278 280 281 282 281 282 283 283 283 283 282 282 281 282 283 284 285 285 285 286 286 285 285 283 282 283 283 284 284 283
265 264 266 267 268 268 269 271 273 273 273 274 276 278 279 280 280 281 279 280 281 282 283 283 282 282 282 281 283 283 283 284 285 286 286 286 285 284 283 283 282 283 284 283
264 265 267 268 268 268 269 270 271 272 273 273 274 276 278 279 280 280 280 280 282 283 283 284 284 283 283 282 282 282 282 283 283 284 285 285 286 285 285 284 284 285 285 284